FW6587 Weather Reports


Display with metric or nautical units.
time (UTC)temp
F
wind
direction
speed
MPH
gust
MPH
rain 1hr
in
rain 24hr
in
rain mn
in
humidity
%
barometer
mb
20260508084553 45 0 0.0 2.0 0.00 0.02 0.00 76 1024.8
20260508083052 45 0 0.0 1.0 0.00 0.02 0.00 75 1025.1
20260508081551 46 0 0.0 1.0 0.00 0.02 0.00 74 1025.1
20260508080047 46 0 0.0 1.0 0.00 0.02 0.00 72 1025.3
20260508074551 46 0 0.0 0.0 0.00 0.02 0.00 71 1025.6
20260508073053 47 0 0.0 2.0 0.00 0.02 0.00 69 1025.5
20260508071554 48 0 0.0 1.0 0.00 0.02 0.00 66 1025.2
20260508070053 49 0 0.0 0.0 0.00 0.02 0.00 65 1025.1
20260508064555 50 0 0.0 0.0 0.00 0.02 0.00 63 1025.3
20260508063118 51 0 0.0 0.0 0.00 0.02 0.00 62 1025.3
20260508061555 52 0 0.0 0.0 0.00 0.02 0.00 62 1025.1
20260508060058 52 0 0.0 3.0 0.00 0.02 0.00 62 1025.1
20260508054555 52 360 1.0 6.0 0.00 0.02 0.02 62 1025.5
20260508053059 53 0 0.0 0.0 0.00 0.02 0.02 60 1025.2
20260508051616 53 0 0.0 2.0 0.00 0.02 0.02 59 1024.8
20260508050054 54 0 0.0 0.0 0.00 0.02 0.02 57 1024.7
20260508044551 54 0 0.0 0.0 0.00 0.02 0.02 57 1024.5
20260508043052 55 59 1.0 4.0 0.00 0.02 0.02 56 1024.7
20260508041554 55 42 0.0 4.0 0.00 0.02 0.02 54 1024.9
20260508040052 56 0 0.0 0.0 0.00 0.02 0.02 52 1024.0
20260508034552 56 0 0.0 0.0 0.00 0.02 0.02 50 1024.0
20260508033053 57 0 0.0 0.0 0.00 0.02 0.02 49 1023.9
20260508031601 57 0 1.0 3.0 0.00 0.02 0.02 49 1023.8
20260508030057 57 338 0.0 3.0 0.00 0.02 0.02 49 1023.7
20260508024549 58 306 0.0 5.0 0.00 0.02 0.02 47 1023.7
20260508023048 59 314 1.0 4.0 0.00 0.02 0.02 45 1023.8
20260508021552 60 223 2.0 4.0 0.00 0.02 0.02 42 1023.8
20260508020104 61 0 0.0 3.0 0.00 0.02 0.02 41 1023.7
20260508014549 62 266 2.0 6.0 0.00 0.03 0.02 38 1023.1
20260508013048 62 233 3.0 7.0 0.00 0.03 0.02 37 1022.4
20260508011553 63 0 0.0 0.0 0.00 0.03 0.02 37 1022.4
20260508010100 64 0 0.0 0.0 0.00 0.03 0.02 35 1022.1
20260508004552 65 0 0.0 0.0 0.00 0.07 0.02 34 1022.0
20260508003100 66 0 0.0 0.0 0.00 0.07 0.02 32 1021.8
20260508001556 67 0 0.0 2.0 0.00 0.07 0.02 31 1021.8
20260508000048 68 0 0.0 0.0 0.00 0.07 0.02 29 1021.9
20260507234551 68 0 0.0 0.0 0.00 0.16 0.02 27 1021.8
20260507233110 68 0 0.0 2.0 0.00 0.16 0.02 25 1021.8
20260507231553 68 344 0.0 3.0 0.00 0.16 0.02 27 1021.9
20260507230112 68 5 0.0 6.0 0.00 0.16 0.02 27 1021.9
20260507224552 68 306 0.0 6.0 0.00 0.31 0.02 26 1021.9
20260507223159 69 0 1.0 5.0 0.00 0.31 0.02 29 1021.9
20260507221554 68 0 1.0 6.0 0.00 0.31 0.02 28 1022.2
20260507220055 70 220 1.0 7.0 0.00 0.31 0.02 28 1022.4
20260507214600 65 245 0.0 8.0 0.00 0.48 0.02 30 1022.7
20260507213116 64 360 1.0 5.0 0.00 0.48 0.02 30 1023.0
20260507211551 64 0 2.0 5.0 0.00 0.48 0.02 31 1023.3
20260507204549 63 343 2.0 9.0 0.00 0.66 0.02 32 1023.7
20260507203057 63 0 0.0 4.0 0.00 0.66 0.02 34 1023.9
20260507201619 63 325 0.0 2.0 0.00 0.66 0.02 34 1024.0
20260507200108 63 246 1.0 5.0 0.00 0.66 0.02 31 1024.2
20260507194554 64 0 1.0 8.0 0.00 0.75 0.02 30 1024.2
20260507193053 64 230 1.0 7.0 0.00 0.75 0.02 32 1024.2
20260507191549 64 229 2.0 7.0 0.00 0.75 0.02 34 1024.3
20260507190055 62 360 3.0 11.0 0.00 0.75 0.02 35 1024.5
20260507184551 62 24 2.0 9.0 0.00 0.77 0.02 33 1024.6
20260507183056 61 0 0.0 2.0 0.00 0.77 0.02 35 1024.8
20260507181550 61 0 0.0 5.0 0.00 0.77 0.02 34 1024.9
20260507180052 60 307 0.0 3.0 0.00 0.77 0.02 39 1025.1
20260507174558 59 0 0.0 0.0 0.00 0.80 0.02 38 1025.0
20260507173059 59 0 0.0 0.0 0.00 0.80 0.02 41 1025.1
20260507171603 59 0 0.0 0.0 0.00 0.80 0.02 39 1025.3
20260507170056 59 0 0.0 0.0 0.00 0.80 0.02 39 1025.2
20260507164549 60 0 0.0 0.0 0.00 0.83 0.02 37 1025.3
20260507163056 60 0 0.0 3.0 0.00 0.83 0.02 38 1025.3
20260507161602 60 310 0.0 7.0 0.00 0.83 0.02 37 1025.5
20260507160052 60 242 1.0 6.0 0.00 0.83 0.02 36 1025.6
20260507154553 61 271 2.0 9.0 0.00 0.84 0.02 35 1025.6
20260507153111 60 263 2.0 5.0 0.00 0.84 0.02 35 1025.6
20260507151601 60 0 1.0 5.0 0.00 0.84 0.02 36 1025.7
20260507144552 57 35 1.0 5.0 0.00 0.85 0.02 39 1025.5
20260507143058 56 254 1.0 5.0 0.00 0.85 0.02 40 1025.5
20260507141557 54 0 1.0 4.0 0.00 0.85 0.02 42 1025.6
20260507140056 52 39 1.0 4.0 0.01 0.85 0.02 44 1025.3
20260507134553 51 0 0.0 5.0 0.01 0.85 0.02 46 1025.5
20260507133057 51 0 0.0 2.0 0.01 0.85 0.02 45 1025.4
20260507131553 50 0 0.0 4.0 0.01 0.85 0.02 44 1025.3
20260507130108 50 286 3.0 10.0 0.00 0.84 0.01 42 1025.2
20260507124613 49 247 3.0 9.0 0.00 0.84 0.01 44 1025.1
20260507123104 48 227 5.0 12.0 0.00 0.84 0.01 45 1025.0
20260507121558 47 242 4.0 11.0 0.00 0.84 0.01 46 1025.1
20260507120055 47 234 2.0 10.0 0.00 0.84 0.01 46 1025.0
20260507114554 47 236 3.0 10.0 0.00 0.84 0.01 45 1024.9
20260507113050 47 250 1.0 8.0 0.01 0.84 0.01 45 1025.0
20260507111558 47 215 0.0 4.0 0.01 0.84 0.01 43 1024.9
20260507110057 47 243 1.0 8.0 0.01 0.84 0.01 43 1024.8
20260507104555 47 236 2.0 11.0 0.01 0.84 0.01 44 1025.0
20260507103049 46 221 0.0 4.0 0.00 0.83 0.00 46 1025.0
20260507101559 47 0 0.0 3.0 0.00 0.83 0.00 46 1025.2
20260507094552 47 264 4.0 9.0 0.00 0.83 0.00 45 1025.0
20260507093053 45 257 3.0 9.0 0.00 0.83 0.00 46 1025.2
20260507091550 43 229 2.0 7.0 0.00 0.83 0.00 50 1025.5
20260507090050 41 352 1.0 4.0 0.00 0.83 0.00 54 1025.7